Weather Roundup
Issued by NWS

Home | Current Version | Previous Version | Text Only | Print | Product List | Glossary On
Versions: 1 2 3 4 5 6 7 8 9 10 11 12 13 14 15 16 17 18 19 20 21 22 23 24 25 26 27 28 29 30 31 32 33 34 35 36 37 38 39 40 41 42 43 44 45 46 47 48 49 50
000
NZUS93 KARX 161159
HRRWXR

CURRENT HOURLY OBSERVATIONS ACROSS
MUCH OF THE UPPER MISSISSIPPI VALLEY
NATIONAL WEATHER SERVICE LA CROSSE WI
700 AM CDT WED APR 16 2014


...SOUTHEAST MINNESOTA...


CITY           SKY/WX    TMP DP  RH WIND       PRES   REMARKS
ROCHESTER      CLOUDY    33  19  56 SE22G32   29.93F WCI  21
ROCHESTER/MAYO CLOUDY    33  15  48 E21G29    29.94F WCI  21
WINONA         CLOUDY    34  23  64 SE17G24   30.05F WCI  23
AUSTIN         CLOUDY    34  21  60 SE16G25   29.90S WCI  23
ALBERT LEA     CLOUDY    36  25  64 SE22G30   29.86S WCI  24
DODGE CENTER   CLOUDY    36  21  55 SE23      29.91S WCI  24
PRESTON        CLOUDY    33  20  59 SE15G28   29.98F WCI  23
OWATONNA       CLOUDY    36  21  55 SE18G25   29.90S WCI  25
FARIBAULT      CLOUDY    37  16  41 E15       29.92S WCI  28
$$

...ELSEWHERE IN MINNESOTA...


CITY           SKY/WX    TMP DP  RH WIND       PRES   REMARKS
MINNEAPOLIS    CLOUDY    33  16  49 E23G30    29.96S WCI  21
INTNL FALLS    PTCLDY    18   3  52 E7        30.15R WCI   9
DULUTH         CLOUDY    25  11  55 E10       30.09S WCI  15
RED WING       CLOUDY    36  16  44 SE21G28   29.98F WCI  24
REDWOOD FALLS  CLOUDY    35  21  56 SE12G24   29.81S WCI  27
MANKATO        CLOUDY    36  21  55 SE20G26   29.87S WCI  25
WORTHINGTON    CLOUDY    37  27  65 SE14G21   29.70F WCI  29
FAIRMONT       CLOUDY    36  25  64 SE20G26   29.80R WCI  25
$$

...SOUTHWEST WISCONSIN...


CITY           SKY/WX    TMP DP  RH WIND       PRES   REMARKS
LA CROSSE      CLOUDY    34  18  52 SE16G23   30.07F WCI  24
PRAIRIE DU CHI CLOUDY    34  19  53 E15G22    30.09F WCI  24
BOSCOBEL       CLOUDY    35  18  49 VRB6      30.15S WCI  30
LONE ROCK      NOT AVBL
PLATTEVILLE    MOCLDY    32  22  67 E12       30.14F WCI  23
FORT MC COY    CLOUDY    31  20  62 E8        30.15S WCI  24
VIROQUA        CLOUDY    31  20  65 SE16      30.09F WCI  19
WIS DELLS      CLOUDY    31  20  64 SE8       30.18S WCI  23
$$

...ELSEWHERE IN WISCONSIN...


CITY           SKY/WX    TMP DP  RH WIND       PRES   REMARKS
MILWAUKEE      MOCLDY    32  21  64 S7        30.28R WCI  26
MADISON        MOCLDY    31  22  69 SE7       30.21S WCI  24
GREEN BAY      CLOUDY    27  22  81 CALM      30.26R
EAU CLAIRE     NOT AVBL
BLACK RVR FLS  CLOUDY    31  19  63 E6        30.14S WCI  25
MEDFORD        LGT SNOW  25  20  82 SE8       30.14R WCI  16
WAUSAU         CLOUDY    26  16  65 S9        30.18R WCI  17
WIS RAPIDS     CLOUDY    28  19  69 SE7       30.21R WCI  21
MARSHFIELD     CLOUDY    27  21  78 SE10      30.17R WCI  17
RICE LAKE      NOT AVBL
$$

...NORTHEAST IOWA...


CITY           SKY/WX    TMP DP  RH WIND       PRES   REMARKS
WATERLOO       CLOUDY    37  23  56 SE24G30   29.98S WCI  26
DUBUQUE        CLOUDY    32  22  66 SE17G28   30.11S WCI  21
DECORAH        CLOUDY    34  19  55 SE20G26   30.00F WCI  22
MASON CITY     CLOUDY    35  26  69 SE22G31   29.89S WCI  23
CHARLES CITY   CLOUDY    36  23  60 SE24G30   29.95F WCI  24
OELWEIN        CLOUDY   N/A N/A N/A SE22G31   30.02R
$$

...ELSEWHERE IN IOWA...


CITY           SKY/WX    TMP DP  RH WIND       PRES   REMARKS
DES MOINES     CLOUDY    43  25  49 S18G26    29.91S
IOWA CITY      MOCLDY    34  25  69 SE13      30.09S WCI  25
FORT DODGE     CLOUDY    39  27  60 SE13G21   29.82F WCI  32
MARSHALLTOWN   CLOUDY    36  26  67 SE22G30   29.94S WCI  25
CEDAR RAPIDS   CLOUDY    36  22  56 SE17G26   30.05S WCI  26
$$

...NORTHERN ILLINOIS...


CITY           SKY/WX    TMP DP  RH WIND       PRES   REMARKS
CHICAGO-OHARE  PTCLDY    31  20  63 S9        30.28R WCI  23
DUPAGE         CLEAR     30  22  72 S10       30.26R WCI  21
CHICAGO-MIDWAY PTCLDY    32  20  61 S9        30.29R WCI  24
MOLINE         MOCLDY    35  23  61 SE13      30.14S WCI  26
ROCKFORD       PTCLDY    30  23  75 SE10      30.25R WCI  21
STERLING       CLEAR     32  23  69 SE8       30.20R WCI  25
PEORIA         CLEAR     36  23  59 S12       30.21S WCI  28
$$

NOTE: "FAIR" INDICATES FEW OR NO CLOUDS BELOW 12,000 FEET WITH NO
SIGNIFICANT WEATHER AND/OR OBSTRUCTIONS TO VISIBILITY. WIND
SPEEDS ARE IN MILES-PER-HOUR.



USA.gov is the U.S. government's official web portal to all federal, state and local government web resources and services.